Location: Innsbruck
(47.2657°N, 11.3914°E)
Time: 18:46:34
(UTC+01:00)

BEESAT 3 - Pass Details

Date: 14 December 2021
Orbit: 472 x 512 km, 64.9° (Epoch: 22 January)

Event Time Altitude Azimuth Distance (km) Brightness Sun altitude
Rises 18:59:02 0° 275° (W) 2,579 ? -25.1°
Reaches altitude 10° 19:02:23 10° 307° (NW) 1,711 ? -25.7°
Maximum altitude 19:03:59 12° 332° (NNW) 1,582 ? -25.9°
Enters shadow 19:04:20 12° 338° (NNW) 1,590 ? -26.0°
